Time,TemperatureF,DewpointF,PressureIn,WindDirection,WindDirectionDegrees,WindSpeedMPH,WindSpeedGustMPH,Humidity,HourlyPrecipIn,Conditions,Clouds,dailyrainin,SoftwareType,DateUTC
2013-03-14 00:02:00,51.0,-99.9,30.05,ESE,115,0.0,2.0,0,-99.99,,,-99.99,,2013-03-14 07:02:00,
2013-03-14 00:12:00,52.0,-99.9,30.04,ESE,115,0.0,1.0,0,-99.99,,,-99.99,,2013-03-14 07:12:00,
2013-03-14 00:22:00,52.0,-99.9,30.04,ESE,115,0.0,1.0,0,-99.99,,,-99.99,,2013-03-14 07:22:00,
2013-03-14 00:32:00,52.0,-99.9,30.04,ESE,115,0.0,1.0,0,-99.99,,,-99.99,,2013-03-14 07:32:00,
2013-03-14 00:43:00,51.0,-99.9,30.03,SE,130,1.0,2.0,0,-99.99,,,-99.99,,2013-03-14 07:43:00,
2013-03-14 00:52:00,50.0,-99.9,30.02,SE,130,0.0,3.0,0,-99.99,,,-99.99,,2013-03-14 07:52:00,
2013-03-14 01:02:00,50.0,-99.9,30.02,SE,130,0.0,3.0,0,-99.99,,,-99.99,,2013-03-14 08:02:00,
2013-03-14 01:12:00,50.0,-99.9,30.01,ESE,120,0.0,5.0,0,-99.99,,,-99.99,,2013-03-14 08:12:00,
2013-03-14 01:22:00,50.0,-99.9,30.01,ESE,120,0.0,5.0,0,-99.99,,,-99.99,,2013-03-14 08:22:00,
2013-03-14 01:32:00,49.0,-99.9,30.02,SE,130,0.0,1.0,0,-99.99,,,-99.99,,2013-03-14 08:32:00,
2013-03-14 01:42:00,49.0,-99.9,30.02,SE,130,0.0,1.0,0,-99.99,,,-99.99,,2013-03-14 08:42:00,
2013-03-14 01:52:00,48.0,-99.9,30.02,SE,130,0.0,0.0,0,-99.99,,,-99.99,,2013-03-14 08:52:00,
2013-03-14 02:02:00,48.0,-99.9,30.02,SE,130,0.0,0.0,0,-99.99,,,-99.99,,2013-03-14 09:02:00,
2013-03-14 02:12:00,48.0,-99.9,30.02,SSE,165,0.0,1.0,0,-99.99,,,-99.99,,2013-03-14 09:12:00,
2013-03-14 02:22:00,48.0,-99.9,30.02,SE,130,1.0,3.0,0,-99.99,,,-99.99,,2013-03-14 09:22:00,
2013-03-14 02:32:00,49.0,-99.9,30.01,ESE,120,0.0,2.0,0,-99.99,,,-99.99,,2013-03-14 09:32:00,
2013-03-14 02:42:00,49.0,-99.9,30.01,ESE,120,0.0,2.0,0,-99.99,,,-99.99,,2013-03-14 09:42:00,
2013-03-14 02:52:00,50.0,-99.9,30.01,NNE,25,1.0,1.0,0,-99.99,,,-99.99,,2013-03-14 09:52:00,
2013-03-14 03:02:00,50.0,-99.9,30.01,NNE,25,1.0,1.0,0,-99.99,,,-99.99,,2013-03-14 10:02:00,
2013-03-14 03:12:00,49.0,-99.9,30.01,SE,130,0.0,3.0,0,-99.99,,,-99.99,,2013-03-14 10:12:00,
2013-03-14 03:22:00,49.0,-99.9,30.00,SSE,155,2.0,5.0,0,-99.99,,,-99.99,,2013-03-14 10:22:00,
2013-03-14 03:32:00,49.0,-99.9,30.00,South,170,1.0,7.0,0,-99.99,,,-99.99,,2013-03-14 10:32:00,
2013-03-14 03:42:00,49.0,-99.9,30.00,South,170,1.0,7.0,0,-99.99,,,-99.99,,2013-03-14 10:42:00,
2013-03-14 03:52:00,49.0,-99.9,30.00,SSE,165,3.0,6.0,0,-99.99,,,-99.99,,2013-03-14 10:52:00,
2013-03-14 04:02:00,49.0,-99.9,30.00,SSE,165,3.0,6.0,0,-99.99,,,-99.99,,2013-03-14 11:02:00,
2013-03-14 04:12:00,50.0,-99.9,30.00,SE,135,3.0,6.0,0,-99.99,,,-99.99,,2013-03-14 11:12:00,
2013-03-14 04:22:00,50.0,-99.9,29.99,SSE,165,2.0,7.0,0,-99.99,,,-99.99,,2013-03-14 11:22:00,
2013-03-14 04:33:00,49.0,-99.9,29.99,SSE,150,3.0,6.0,0,-99.99,,,-99.99,,2013-03-14 11:33:00,
2013-03-14 04:42:00,49.0,-99.9,29.99,SSE,150,3.0,6.0,0,-99.99,,,-99.99,,2013-03-14 11:42:00,
2013-03-14 04:53:00,50.0,-99.9,29.99,SE,125,2.0,8.0,0,-99.99,,,-99.99,,2013-03-14 11:53:00,
2013-03-14 05:02:00,50.0,-99.9,29.98,SSE,160,2.0,7.0,0,-99.99,,,-99.99,,2013-03-14 12:02:00,
2013-03-14 05:12:00,50.0,-99.9,29.98,SSE,160,2.0,7.0,0,-99.99,,,-99.99,,2013-03-14 12:12:00,
2013-03-14 05:22:00,50.0,-99.9,29.98,SSE,155,0.0,6.0,0,-99.99,,,-99.99,,2013-03-14 12:22:00,
2013-03-14 05:33:00,51.0,-99.9,29.98,SSE,165,3.0,7.0,0,-99.99,,,-99.99,,2013-03-14 12:33:00,
2013-03-14 05:43:00,51.0,-99.9,29.98,SSE,165,3.0,7.0,0,-99.99,,,-99.99,,2013-03-14 12:43:00,
2013-03-14 05:52:00,51.0,-99.9,29.98,SSE,165,2.0,6.0,0,-99.99,,,-99.99,,2013-03-14 12:52:00,
2013-03-14 06:03:00,51.0,-99.9,29.98,SSE,165,2.0,6.0,0,-99.99,,,-99.99,,2013-03-14 13:03:00,
2013-03-14 06:13:00,51.0,-99.9,29.98,South,185,1.0,6.0,0,-99.99,,,-99.99,,2013-03-14 13:13:00,
2013-03-14 06:22:00,50.0,-99.9,29.97,SSE,165,1.0,3.0,0,-99.99,,,-99.99,,2013-03-14 13:22:00,
2013-03-14 06:32:00,50.0,-99.9,29.96,SE,130,1.0,5.0,0,-99.99,,,-99.99,,2013-03-14 13:32:00,
2013-03-14 06:43:00,50.0,-99.9,29.96,SE,130,1.0,5.0,0,-99.99,,,-99.99,,2013-03-14 13:43:00,
2013-03-14 06:52:00,50.0,-99.9,29.96,SSE,160,1.0,7.0,0,-99.99,,,-99.99,,2013-03-14 13:52:00,
2013-03-14 07:02:00,50.0,-99.9,29.96,SSE,160,1.0,7.0,0,-99.99,,,-99.99,,2013-03-14 14:02:00,
2013-03-14 07:12:00,50.0,-99.9,29.97,SSE,150,1.0,7.0,0,-99.99,,,-99.99,,2013-03-14 14:12:00,
2013-03-14 07:22:00,49.0,-99.9,29.97,SSE,150,1.0,5.0,0,-99.99,,,-99.99,,2013-03-14 14:22:00,
2013-03-14 07:32:00,49.0,-99.9,29.96,SSE,155,3.0,6.0,0,-99.99,,,-99.99,,2013-03-14 14:32:00,
2013-03-14 07:43:00,49.0,-99.9,29.96,SSE,155,3.0,6.0,0,-99.99,,,-99.99,,2013-03-14 14:43:00,
2013-03-14 07:50:00,49.0,-99.9,29.96,ESE,120,3.0,9.0,0,-99.99,,,-99.99,,2013-03-14 14:50:00,
2013-03-14 07:53:00,49.0,-99.9,29.96,SE,140,2.0,8.0,0,-99.99,,,-99.99,,2013-03-14 14:53:00,
2013-03-14 08:02:00,49.0,-99.9,29.96,SE,140,2.0,8.0,0,-99.99,,,-99.99,,2013-03-14 15:02:00,
2013-03-14 08:12:00,49.0,-99.9,29.96,South,190,3.0,8.0,0,-99.99,,,-99.99,,2013-03-14 15:12:00,
2013-03-14 08:22:00,49.0,-99.9,29.96,ESE,120,3.0,9.0,0,-99.99,,,-99.99,,2013-03-14 15:22:00,
2013-03-14 08:33:00,49.0,-99.9,29.96,ESE,120,3.0,9.0,0,-99.99,,,-99.99,,2013-03-14 15:33:00,
2013-03-14 08:43:00,49.0,-99.9,29.96,ESE,120,3.0,9.0,0,-99.99,,,-99.99,,2013-03-14 15:43:00,
2013-03-14 10:13:00,50.0,-99.9,29.98,SSE,165,3.0,10.0,0,-99.99,,,-99.99,,2013-03-14 17:13:00,
2013-03-14 10:23:00,51.0,-99.9,29.99,South,170,2.0,9.0,0,-99.99,,,-99.99,,2013-03-14 17:23:00,
2013-03-14 10:33:00,51.0,-99.9,29.99,South,170,2.0,9.0,0,-99.99,,,-99.99,,2013-03-14 17:33:00,
2013-03-14 10:42:00,51.0,-99.9,30.00,SSE,155,5.0,12.0,0,-99.99,,,-99.99,,2013-03-14 17:42:00,
2013-03-14 10:53:00,52.0,-99.9,30.01,WNW,290,2.0,10.0,0,-99.99,,,-99.99,,2013-03-14 17:53:00,
2013-03-14 11:03:00,52.0,-99.9,30.01,WNW,290,2.0,10.0,0,-99.99,,,-99.99,,2013-03-14 18:03:00,
2013-03-14 11:13:00,53.0,-99.9,30.01,SE,130,1.0,3.0,0,-99.99,,,-99.99,,2013-03-14 18:13:00,
2013-03-14 11:23:00,56.0,-99.9,30.00,SSW,195,8.0,12.0,0,-99.99,,,-99.99,,2013-03-14 18:23:00,
2013-03-14 11:33:00,56.0,-99.9,30.00,SSW,195,8.0,12.0,0,-99.99,,,-99.99,,2013-03-14 18:33:00,
2013-03-14 11:43:00,56.0,-99.9,30.00,SSW,195,8.0,12.0,0,-99.99,,,-99.99,,2013-03-14 18:43:00,
2013-03-14 11:53:00,56.0,-99.9,30.01,WNW,285,2.0,12.0,0,-99.99,,,-99.99,,2013-03-14 18:53:00,
2013-03-14 12:03:00,56.0,-99.9,30.01,WNW,285,2.0,12.0,0,-99.99,,,-99.99,,2013-03-14 19:03:00,
2013-03-14 12:12:00,56.0,-99.9,30.00,SSE,155,3.0,8.0,0,-99.99,,,-99.99,,2013-03-14 19:12:00,
2013-03-14 12:23:00,56.0,-99.9,30.00,SSE,150,3.0,10.0,0,-99.99,,,-99.99,,2013-03-14 19:23:00,
2013-03-14 12:32:00,55.0,-99.9,30.00,SSW,195,6.0,7.0,0,-99.99,,,-99.99,,2013-03-14 19:32:00,
2013-03-14 12:43:00,55.0,-99.9,30.00,SSW,195,6.0,7.0,0,-99.99,,,-99.99,,2013-03-14 19:43:00,
2013-03-14 12:52:00,55.0,-99.9,30.00,SSW,195,6.0,7.0,0,-99.99,,,-99.99,,2013-03-14 19:52:00,
2013-03-14 13:02:00,55.0,-99.9,30.00,SSW,195,6.0,7.0,0,-99.99,,,-99.99,,2013-03-14 20:02:00,
2013-03-14 13:32:00,58.0,-99.9,29.99,SW,215,2.0,8.0,0,-99.99,,,-99.99,,2013-03-14 20:32:00,
2013-03-14 13:43:00,58.0,-99.9,29.99,SW,215,2.0,8.0,0,-99.99,,,-99.99,,2013-03-14 20:43:00,
2013-03-14 13:53:00,58.0,-99.9,29.98,South,190,2.0,7.0,0,-99.99,,,-99.99,,2013-03-14 20:53:00,
2013-03-14 14:03:00,58.0,-99.9,29.98,South,190,2.0,7.0,0,-99.99,,,-99.99,,2013-03-14 21:03:00,
2013-03-14 14:13:00,58.0,-99.9,29.98,South,190,2.0,7.0,0,-99.99,,,-99.99,,2013-03-14 21:13:00,
2013-03-14 14:23:00,58.0,-99.9,29.97,SSW,205,6.0,9.0,0,-99.99,,,-99.99,,2013-03-14 21:23:00,
2013-03-14 14:33:00,58.0,-99.9,29.97,SSW,205,6.0,9.0,0,-99.99,,,-99.99,,2013-03-14 21:33:00,
2013-03-14 14:44:00,58.0,-99.9,29.97,SSE,150,3.0,9.0,0,-99.99,,,-99.99,,2013-03-14 21:44:00,
2013-03-14 14:53:00,59.0,-99.9,29.95,SSE,165,3.0,8.0,0,-99.99,,,-99.99,,2013-03-14 21:53:00,
2013-03-14 15:04:00,59.0,-99.9,29.95,SSE,165,3.0,8.0,0,-99.99,,,-99.99,,2013-03-14 22:04:00,
2013-03-14 15:13:00,60.0,-99.9,29.95,SW,220,7.0,9.0,0,-99.99,,,-99.99,,2013-03-14 22:13:00,
2013-03-14 15:23:00,61.0,-99.9,29.95,WSW,255,3.0,6.0,0,-99.99,,,-99.99,,2013-03-14 22:23:00,
2013-03-14 15:33:00,61.0,-99.9,29.95,WSW,255,3.0,6.0,0,-99.99,,,-99.99,,2013-03-14 22:33:00,
2013-03-14 15:42:00,62.0,-99.9,29.94,SE,145,1.0,6.0,0,-99.99,,,-99.99,,2013-03-14 22:42:00,
2013-03-14 15:53:00,61.0,-99.9,29.95,WSW,255,7.0,10.0,0,-99.99,,,-99.99,,2013-03-14 22:53:00,
2013-03-14 16:03:00,61.0,-99.9,29.95,WSW,255,7.0,10.0,0,-99.99,,,-99.99,,2013-03-14 23:03:00,
2013-03-14 16:12:00,61.0,-99.9,29.95,WNW,295,3.0,13.0,0,-99.99,,,-99.99,,2013-03-14 23:12:00,
2013-03-14 16:23:00,61.0,-99.9,29.96,WNW,290,7.0,8.0,0,-99.99,,,-99.99,,2013-03-14 23:23:00,
2013-03-14 16:33:00,60.0,-99.9,29.96,WNW,290,7.0,12.0,0,-99.99,,,-99.99,,2013-03-14 23:33:00,
2013-03-14 16:43:00,60.0,-99.9,29.96,WNW,290,7.0,12.0,0,-99.99,,,-99.99,,2013-03-14 23:43:00,
2013-03-14 16:54:00,60.0,-99.9,29.97,WNW,300,3.0,15.0,0,-99.99,,,-99.99,,2013-03-14 23:54:00,
2013-03-14 17:02:00,60.0,-99.9,29.97,WNW,300,3.0,15.0,0,-99.99,,,-99.99,,2013-03-15 00:02:00,
2013-03-14 17:12:00,59.0,-99.9,29.96,WNW,285,5.0,15.0,0,-99.99,,,-99.99,,2013-03-15 00:12:00,
2013-03-14 17:23:00,59.0,-99.9,29.97,NW,310,6.0,14.0,0,-99.99,,,-99.99,,2013-03-15 00:23:00,
2013-03-14 17:33:00,58.0,-99.9,29.96,WNW,295,8.0,12.0,0,-99.99,,,-99.99,,2013-03-15 00:33:00,
2013-03-14 17:43:00,58.0,-99.9,29.96,WNW,295,8.0,12.0,0,-99.99,,,-99.99,,2013-03-15 00:43:00,
2013-03-14 17:52:00,58.0,-99.9,29.96,NW,305,3.0,12.0,0,-99.99,,,-99.99,,2013-03-15 00:52:00,
2013-03-14 18:02:00,58.0,-99.9,29.96,NW,305,3.0,12.0,0,-99.99,,,-99.99,,2013-03-15 01:02:00,
2013-03-14 18:12:00,58.0,-99.9,29.97,WNW,300,7.0,13.0,0,-99.99,,,-99.99,,2013-03-15 01:12:00,
2013-03-14 18:23:00,58.0,-99.9,29.97,WNW,300,7.0,13.0,0,-99.99,,,-99.99,,2013-03-15 01:23:00,
2013-03-14 18:33:00,58.0,-99.9,29.97,WNW,300,7.0,13.0,0,-99.99,,,-99.99,,2013-03-15 01:33:00,
2013-03-14 18:43:00,56.0,-99.9,29.97,WNW,290,3.0,10.0,0,-99.99,,,-99.99,,2013-03-15 01:43:00,
2013-03-14 18:52:00,56.0,-99.9,29.97,WNW,295,9.0,12.0,0,-99.99,,,-99.99,,2013-03-15 01:52:00,
2013-03-14 19:03:00,56.0,-99.9,29.97,WNW,295,9.0,12.0,0,-99.99,,,-99.99,,2013-03-15 02:03:00,
2013-03-14 19:12:00,56.0,-99.9,29.98,NNW,335,6.0,12.0,0,-99.99,,,-99.99,,2013-03-15 02:12:00,
2013-03-14 19:22:00,56.0,-99.9,29.98,NNW,335,6.0,12.0,0,-99.99,,,-99.99,,2013-03-15 02:22:00,
2013-03-14 19:32:00,56.0,-99.9,29.98,NNW,335,6.0,12.0,0,-99.99,,,-99.99,,2013-03-15 02:32:00,
2013-03-14 20:13:00,52.0,-99.9,30.00,West,260,7.0,12.0,0,-99.99,,,-99.99,,2013-03-15 03:13:00,
2013-03-14 20:22:00,52.0,-99.9,30.00,West,260,7.0,12.0,0,-99.99,,,-99.99,,2013-03-15 03:22:00,
2013-03-14 20:33:00,52.0,-99.9,30.00,West,260,7.0,12.0,0,-99.99,,,-99.99,,2013-03-15 03:33:00,
2013-03-14 21:13:00,49.0,-99.9,30.03,WSW,255,1.0,7.0,0,-99.99,,,-99.99,,2013-03-15 04:13:00,
2013-03-14 21:23:00,48.0,-99.9,30.04,NNW,335,1.0,3.0,0,-99.99,,,-99.99,,2013-03-15 04:23:00,
2013-03-14 21:33:00,48.0,-99.9,30.04,NNW,335,1.0,3.0,0,-99.99,,,-99.99,,2013-03-15 04:33:00,
2013-03-14 21:43:00,48.0,-99.9,30.04,NNW,335,1.0,3.0,0,-99.99,,,-99.99,,2013-03-15 04:43:00,
2013-03-14 21:53:00,46.0,-99.9,30.05,WNW,295,3.0,6.0,0,-99.99,,,-99.99,,2013-03-15 04:53:00,
2013-03-14 22:02:00,46.0,-99.9,30.05,WNW,295,3.0,6.0,0,-99.99,,,-99.99,,2013-03-15 05:02:00,
2013-03-14 22:12:00,46.0,-99.9,30.05,North,350,1.0,3.0,0,-99.99,,,-99.99,,2013-03-15 05:12:00,
2013-03-14 22:23:00,46.0,-99.9,30.06,NNW,335,0.0,6.0,0,-99.99,,,-99.99,,2013-03-15 05:23:00,
2013-03-14 22:32:00,46.0,-99.9,30.06,NNW,335,0.0,6.0,0,-99.99,,,-99.99,,2013-03-15 05:32:00,
2013-03-14 22:42:00,46.0,-99.9,30.06,NNW,335,0.0,6.0,0,-99.99,,,-99.99,,2013-03-15 05:42:00,
2013-03-14 22:52:00,46.0,-99.9,30.07,East,80,1.0,3.0,0,-99.99,,,-99.99,,2013-03-15 05:52:00,
2013-03-14 23:02:00,46.0,-99.9,30.07,East,80,1.0,3.0,0,-99.99,,,-99.99,,2013-03-15 06:02:00,
2013-03-14 23:13:00,46.0,-99.9,30.07,East,80,1.0,3.0,0,-99.99,,,-99.99,,2013-03-15 06:13:00,
2013-03-14 23:22:00,45.0,-99.9,30.07,SE,135,1.0,3.0,0,-99.99,,,-99.99,,2013-03-15 06:22:00,
2013-03-14 23:33:00,45.0,-99.9,30.07,SE,135,1.0,3.0,0,-99.99,,,-99.99,,2013-03-15 06:33:00,
2013-03-14 23:42:00,45.0,-99.9,30.07,ESE,120,3.0,5.0,0,-99.99,,,-99.99,,2013-03-15 06:42:00,
2013-03-14 23:53:00,45.0,-99.9,30.07,SSE,160,0.0,3.0,0,-99.99,,,-99.99,,2013-03-15 06:53:00,